N6KR PAYA-PASI

Flight info

Callsign N6KR
Flight time 0h 58m
Altitude 13000
Route DCT
Aircraft B58T/L-SDFGRY/C

Departure

Time 2026-04-17 00:24
Airport Yakutat Airport (PAYA)

Arrival

Time 2026-04-17 01:22
Airport Sitka Rocky Gutierrez Airport (PASI)
Time Latitude Longitude Altitude Speed Heading
2026-04-17 00:06 59.50991 -139.66738 43 ft 0 kts 305°
2026-04-17 00:22 59.50950 -139.66523 43 ft 20 kts 126°
2026-04-17 00:22 59.50986 -139.66299 43 ft 18 kts 358°
2026-04-17 00:22 59.51097 -139.66457 43 ft 17 kts 351°
2026-04-17 00:23 59.51091 -139.66400 43 ft 0 kts 132°
2026-04-17 00:23 59.51045 -139.66313 43 ft 44 kts 136°
2026-04-17 00:23 59.50638 -139.65523 83 ft 108 kts 136°
2026-04-17 00:24 59.50073 -139.64444 425 ft 114 kts 137°
2026-04-17 00:24 59.49543 -139.63402 954 ft 106 kts 141°
2026-04-17 00:24 59.48964 -139.62529 1492 ft 104 kts 144°
2026-04-17 00:24 59.48374 -139.61671 2000 ft 109 kts 143°
2026-04-17 00:25 59.47741 -139.60706 2414 ft 123 kts 142°
2026-04-17 00:25 59.47039 -139.59576 2829 ft 137 kts 140°
2026-04-17 00:25 59.46308 -139.58290 3228 ft 145 kts 139°
2026-04-17 00:25 59.45577 -139.56914 3668 ft 146 kts 137°
2026-04-17 00:26 59.44853 -139.55489 4108 ft 148 kts 136°
2026-04-17 00:26 59.44132 -139.54043 4556 ft 149 kts 137°
2026-04-17 00:26 59.43394 -139.52597 5027 ft 151 kts 137°
2026-04-17 00:26 59.42635 -139.51140 5478 ft 155 kts 139°
2026-04-17 00:27 59.41846 -139.49659 5949 ft 159 kts 140°
2026-04-17 00:27 59.41038 -139.48146 6405 ft 163 kts 140°
2026-04-17 00:27 59.40213 -139.46588 6831 ft 165 kts 140°
2026-04-17 00:27 59.39393 -139.44994 7249 ft 167 kts 140°
2026-04-17 00:28 59.38567 -139.43371 7690 ft 169 kts 140°
2026-04-17 00:28 59.37728 -139.41740 8152 ft 172 kts 141°
2026-04-17 00:28 59.36855 -139.40094 8620 ft 176 kts 142°
2026-04-17 00:28 59.35966 -139.38426 9054 ft 179 kts 142°
2026-04-17 00:29 59.35071 -139.36722 9477 ft 179 kts 142°
2026-04-17 00:29 59.34186 -139.35016 9920 ft 178 kts 143°
2026-04-17 00:29 59.33300 -139.33314 10344 ft 178 kts 144°
2026-04-17 00:29 59.32411 -139.31626 10746 ft 178 kts 143°
2026-04-17 00:30 59.31515 -139.29938 11172 ft 180 kts 144°
2026-04-17 00:30 59.30613 -139.28225 11606 ft 181 kts 144°
2026-04-17 00:30 59.29708 -139.26495 12045 ft 183 kts 144°
2026-04-17 00:30 59.28795 -139.24751 12491 ft 185 kts 144°
2026-04-17 00:31 59.27845 -139.22959 12780 ft 196 kts 144°
2026-04-17 00:31 59.26820 -139.21042 12904 ft 212 kts 144°
2026-04-17 00:31 59.25729 -139.18969 12959 ft 225 kts 143°
2026-04-17 00:31 59.24588 -139.16777 12981 ft 235 kts 142°
2026-04-17 00:32 59.23402 -139.14519 13004 ft 241 kts 143°
2026-04-17 00:32 59.22182 -139.12223 12997 ft 245 kts 143°
2026-04-17 00:32 59.20961 -139.09935 12998 ft 248 kts 143°
2026-04-17 00:32 59.19714 -139.07593 13000 ft 250 kts 143°
2026-04-17 00:33 59.18471 -139.05247 13000 ft 245 kts 142°
2026-04-17 00:33 59.17264 -139.02963 12999 ft 239 kts 143°
2026-04-17 00:33 59.16076 -139.00733 13001 ft 235 kts 143°
2026-04-17 00:33 59.14901 -138.98544 12998 ft 233 kts 143°
2026-04-17 00:34 59.13738 -138.96371 13002 ft 231 kts 143°
2026-04-17 00:34 59.12581 -138.94200 13002 ft 230 kts 143°
2026-04-17 00:34 59.11433 -138.92042 13002 ft 229 kts 143°
2026-04-17 00:34 59.10282 -138.89889 12991 ft 229 kts 143°
2026-04-17 00:35 59.09134 -138.87750 12996 ft 229 kts 143°
2026-04-17 00:35 59.07985 -138.85610 12999 ft 229 kts 143°
2026-04-17 00:35 59.06839 -138.83471 13001 ft 229 kts 143°
2026-04-17 00:35 59.05692 -138.81333 13007 ft 229 kts 143°
2026-04-17 00:36 59.04545 -138.79198 13008 ft 229 kts 143°
2026-04-17 00:36 59.03396 -138.77063 13008 ft 228 kts 143°
2026-04-17 00:36 59.02247 -138.74934 13008 ft 228 kts 143°
2026-04-17 00:36 59.01098 -138.72803 13007 ft 228 kts 143°
2026-04-17 00:37 58.99949 -138.70679 13008 ft 228 kts 144°
2026-04-17 00:37 58.98752 -138.68668 13007 ft 226 kts 148°
2026-04-17 00:37 58.97537 -138.66739 13008 ft 226 kts 149°
2026-04-17 00:37 58.96314 -138.64815 13012 ft 227 kts 147°
2026-04-17 00:38 58.95132 -138.62789 13011 ft 228 kts 144°
2026-04-17 00:38 58.93979 -138.60671 13012 ft 228 kts 143°
2026-04-17 00:38 58.92841 -138.58537 13012 ft 228 kts 143°
2026-04-17 00:38 58.91693 -138.56417 13012 ft 228 kts 144°
2026-04-17 00:39 58.90539 -138.54336 13012 ft 227 kts 144°
2026-04-17 00:39 58.89375 -138.52253 13012 ft 227 kts 144°
2026-04-17 00:39 58.88227 -138.50172 13012 ft 227 kts 144°
2026-04-17 00:39 58.87072 -138.48066 13002 ft 228 kts 143°
2026-04-17 00:40 58.85921 -138.45956 13012 ft 228 kts 143°
2026-04-17 00:40 58.84767 -138.43855 13016 ft 228 kts 143°
2026-04-17 00:40 58.83607 -138.41763 13017 ft 228 kts 144°
2026-04-17 00:40 58.82444 -138.39674 13018 ft 229 kts 144°
2026-04-17 00:41 58.81281 -138.37576 13018 ft 229 kts 143°
2026-04-17 00:41 58.80121 -138.35473 13018 ft 229 kts 143°
2026-04-17 00:41 58.78958 -138.33367 13018 ft 229 kts 143°
2026-04-17 00:41 58.77795 -138.31269 13017 ft 229 kts 144°
2026-04-17 00:42 58.76632 -138.29179 13017 ft 229 kts 144°
2026-04-17 00:42 58.75470 -138.27094 13017 ft 228 kts 144°
2026-04-17 00:42 58.74310 -138.25010 13017 ft 228 kts 144°
2026-04-17 00:42 58.73154 -138.22931 13018 ft 227 kts 144°
2026-04-17 00:43 58.71999 -138.20857 13020 ft 227 kts 144°
2026-04-17 00:43 58.70842 -138.18785 13020 ft 228 kts 144°
2026-04-17 00:43 58.69684 -138.16714 13022 ft 228 kts 144°
2026-04-17 00:43 58.68532 -138.14654 13022 ft 229 kts 144°
2026-04-17 00:44 58.67350 -138.12539 13016 ft 229 kts 144°
2026-04-17 00:44 58.66202 -138.10488 13015 ft 229 kts 144°
2026-04-17 00:44 58.65011 -138.08365 13016 ft 229 kts 144°
2026-04-17 00:44 58.63845 -138.06287 13005 ft 228 kts 144°
2026-04-17 00:45 58.62680 -138.04214 13010 ft 228 kts 144°
2026-04-17 00:45 58.61518 -138.02149 13018 ft 228 kts 144°
2026-04-17 00:45 58.60358 -138.00088 13019 ft 228 kts 144°
2026-04-17 00:45 58.59197 -137.98026 13019 ft 227 kts 144°
2026-04-17 00:46 58.58427 -137.96660 13026 ft 227 kts 144°
2026-04-17 00:46 58.57264 -137.94599 13023 ft 228 kts 144°
2026-04-17 00:46 58.56101 -137.92540 13020 ft 228 kts 144°
2026-04-17 00:46 58.54935 -137.90477 13018 ft 228 kts 144°
2026-04-17 00:47 58.53773 -137.88423 13019 ft 227 kts 144°
2026-04-17 00:47 58.52609 -137.86368 13023 ft 227 kts 144°
2026-04-17 00:47 58.51449 -137.84323 13021 ft 227 kts 144°
2026-04-17 00:47 58.50289 -137.82279 13021 ft 227 kts 144°
2026-04-17 00:48 58.49129 -137.80236 13023 ft 227 kts 144°
2026-04-17 00:48 58.47966 -137.78190 13023 ft 227 kts 144°
2026-04-17 00:48 58.46804 -137.76149 13023 ft 227 kts 144°
2026-04-17 00:48 58.45641 -137.74107 13024 ft 227 kts 144°
2026-04-17 00:49 58.44480 -137.72070 13026 ft 227 kts 144°
2026-04-17 00:49 58.43319 -137.70037 13014 ft 226 kts 144°
2026-04-17 00:49 58.42161 -137.68010 13022 ft 226 kts 144°
2026-04-17 00:49 58.41007 -137.65989 13027 ft 225 kts 144°
2026-04-17 00:50 58.39850 -137.63968 13026 ft 225 kts 144°
2026-04-17 00:50 58.38692 -137.61947 13030 ft 226 kts 144°
2026-04-17 00:50 58.37536 -137.59932 13025 ft 226 kts 144°
2026-04-17 00:50 58.36378 -137.57914 13025 ft 226 kts 144°
2026-04-17 00:51 58.35217 -137.55894 13025 ft 226 kts 144°
2026-04-17 00:51 58.34056 -137.53873 13027 ft 226 kts 144°
2026-04-17 00:51 58.32892 -137.51846 13038 ft 228 kts 144°
2026-04-17 00:51 58.31715 -137.49810 13041 ft 230 kts 144°
2026-04-17 00:52 58.30535 -137.47760 13027 ft 230 kts 144°
2026-04-17 00:52 58.29359 -137.45719 13027 ft 229 kts 144°
2026-04-17 00:52 58.28187 -137.43689 13023 ft 228 kts 144°
2026-04-17 00:52 58.27015 -137.41666 13025 ft 227 kts 144°
2026-04-17 00:53 58.25844 -137.39646 13030 ft 227 kts 144°
2026-04-17 00:53 58.24675 -137.37628 13031 ft 227 kts 144°
2026-04-17 00:53 58.23503 -137.35603 13031 ft 228 kts 144°
2026-04-17 00:53 58.22332 -137.33583 13031 ft 228 kts 144°
2026-04-17 00:54 58.21160 -137.31566 13018 ft 227 kts 145°
2026-04-17 00:54 58.19989 -137.29556 13024 ft 227 kts 145°
2026-04-17 00:54 58.18818 -137.27545 13027 ft 227 kts 145°
2026-04-17 00:54 58.17652 -137.25537 13028 ft 227 kts 145°
2026-04-17 00:55 58.16483 -137.23532 13032 ft 226 kts 145°
2026-04-17 00:55 58.15323 -137.21548 13036 ft 226 kts 145°
2026-04-17 00:55 58.14144 -137.19535 13042 ft 227 kts 145°
2026-04-17 00:55 58.12969 -137.17522 13039 ft 228 kts 145°
2026-04-17 00:56 58.11793 -137.15507 13025 ft 228 kts 145°
2026-04-17 00:56 58.10620 -137.13502 13023 ft 227 kts 145°
2026-04-17 00:56 58.09451 -137.11511 13023 ft 226 kts 145°
2026-04-17 00:56 58.08283 -137.09525 13030 ft 225 kts 145°
2026-04-17 00:57 58.07118 -137.07543 13033 ft 225 kts 145°
2026-04-17 00:57 58.05956 -137.05565 13032 ft 225 kts 145°
2026-04-17 00:57 58.04797 -137.03594 13035 ft 225 kts 145°
2026-04-17 00:57 58.03635 -137.01619 13030 ft 224 kts 145°
2026-04-17 00:58 58.02477 -136.99655 13032 ft 224 kts 145°
2026-04-17 00:58 58.01334 -136.97718 13032 ft 224 kts 145°
2026-04-17 00:58 58.00179 -136.95765 13028 ft 223 kts 145°
2026-04-17 00:58 57.99027 -136.93820 13025 ft 222 kts 145°
2026-04-17 00:59 57.97880 -136.91883 13028 ft 221 kts 145°
2026-04-17 00:59 57.96723 -136.89920 13031 ft 220 kts 145°
2026-04-17 00:59 57.95603 -136.88025 13033 ft 220 kts 145°
2026-04-17 00:59 57.94463 -136.86109 13037 ft 220 kts 145°
2026-04-17 01:00 57.93323 -136.84198 13037 ft 220 kts 145°
2026-04-17 01:00 57.92182 -136.82276 13037 ft 220 kts 145°
2026-04-17 01:00 57.91040 -136.80350 13039 ft 220 kts 145°
2026-04-17 01:00 57.89896 -136.78426 13043 ft 220 kts 145°
2026-04-17 01:01 57.88753 -136.76512 13044 ft 220 kts 145°
2026-04-17 01:01 57.87607 -136.74593 13041 ft 220 kts 145°
2026-04-17 01:01 57.86464 -136.72677 13039 ft 220 kts 145°
2026-04-17 01:01 57.85323 -136.70764 13039 ft 220 kts 145°
2026-04-17 01:02 57.84184 -136.68860 13039 ft 220 kts 145°
2026-04-17 01:02 57.83039 -136.66948 13040 ft 220 kts 145°
2026-04-17 01:02 57.81893 -136.65038 13040 ft 221 kts 145°
2026-04-17 01:02 57.80746 -136.63125 13046 ft 221 kts 145°
2026-04-17 01:03 57.79595 -136.61205 13046 ft 222 kts 145°
2026-04-17 01:03 57.78439 -136.59278 13046 ft 223 kts 145°
2026-04-17 01:03 57.77279 -136.57351 13039 ft 223 kts 143°
2026-04-17 01:03 57.76110 -136.55421 13042 ft 225 kts 144°
2026-04-17 01:04 57.74939 -136.53462 13043 ft 226 kts 144°
2026-04-17 01:04 57.73764 -136.51499 13042 ft 227 kts 144°
2026-04-17 01:04 57.72577 -136.49538 13045 ft 228 kts 144°
2026-04-17 01:04 57.71388 -136.47581 13046 ft 228 kts 144°
2026-04-17 01:05 57.70194 -136.45610 13048 ft 229 kts 144°
2026-04-17 01:05 57.69000 -136.43633 13048 ft 230 kts 144°
2026-04-17 01:05 57.67799 -136.41645 13046 ft 231 kts 144°
2026-04-17 01:05 57.66598 -136.39660 13047 ft 231 kts 144°
2026-04-17 01:06 57.65397 -136.37684 13049 ft 231 kts 144°
2026-04-17 01:06 57.64181 -136.35683 13049 ft 232 kts 144°
2026-04-17 01:06 57.62972 -136.33696 13052 ft 232 kts 144°
2026-04-17 01:06 57.61760 -136.31704 13054 ft 232 kts 144°
2026-04-17 01:07 57.60548 -136.29712 13055 ft 232 kts 144°
2026-04-17 01:07 57.59335 -136.27720 13054 ft 232 kts 144°
2026-04-17 01:07 57.58121 -136.25731 13054 ft 232 kts 144°
2026-04-17 01:07 57.56906 -136.23743 13053 ft 232 kts 144°
2026-04-17 01:08 57.55690 -136.21752 13053 ft 233 kts 144°
2026-04-17 01:08 57.54465 -136.19762 12917 ft 239 kts 143°
2026-04-17 01:08 57.53178 -136.17666 12523 ft 252 kts 143°
2026-04-17 01:08 57.51848 -136.15474 12132 ft 258 kts 143°
2026-04-17 01:09 57.50491 -136.13247 11745 ft 261 kts 143°
2026-04-17 01:09 57.49121 -136.11024 11364 ft 262 kts 143°
2026-04-17 01:09 57.47749 -136.08808 10983 ft 261 kts 143°
2026-04-17 01:09 57.46385 -136.06596 10601 ft 260 kts 143°
2026-04-17 01:10 57.45057 -136.04429 10184 ft 244 kts 144°
2026-04-17 01:10 57.43827 -136.02422 9725 ft 228 kts 144°
2026-04-17 01:10 57.42655 -136.00539 9271 ft 218 kts 144°
2026-04-17 01:10 57.41534 -135.98741 8897 ft 208 kts 144°
2026-04-17 01:11 57.40473 -135.97020 8616 ft 199 kts 144°
2026-04-17 01:11 57.39443 -135.95346 8356 ft 195 kts 144°
2026-04-17 01:11 57.38430 -135.93710 8104 ft 192 kts 144°
2026-04-17 01:11 57.37431 -135.92097 7848 ft 189 kts 144°
2026-04-17 01:12 57.36442 -135.90504 7591 ft 187 kts 144°
2026-04-17 01:12 57.35461 -135.88929 7336 ft 186 kts 144°
2026-04-17 01:12 57.34506 -135.87388 7111 ft 184 kts 144°
2026-04-17 01:12 57.33526 -135.85812 6892 ft 189 kts 143°
2026-04-17 01:13 57.32513 -135.84188 6672 ft 191 kts 143°
2026-04-17 01:13 57.31521 -135.82623 6414 ft 190 kts 142°
2026-04-17 01:13 57.30534 -135.80989 6209 ft 191 kts 142°
2026-04-17 01:13 57.29541 -135.79365 5959 ft 189 kts 143°
2026-04-17 01:14 57.28563 -135.77825 5610 ft 183 kts 144°
2026-04-17 01:14 57.27599 -135.76299 5403 ft 182 kts 143°
2026-04-17 01:14 57.26638 -135.74787 5157 ft 181 kts 144°
2026-04-17 01:14 57.25705 -135.73280 4869 ft 175 kts 143°
2026-04-17 01:15 57.24784 -135.71802 4664 ft 176 kts 143°
2026-04-17 01:15 57.23863 -135.70311 4419 ft 176 kts 143°
2026-04-17 01:15 57.22994 -135.68781 4042 ft 168 kts 141°
2026-04-17 01:15 57.22084 -135.67524 3947 ft 161 kts 147°
2026-04-17 01:16 57.21243 -135.66184 3910 ft 159 kts 139°
2026-04-17 01:16 57.20492 -135.64678 3857 ft 161 kts 140°
2026-04-17 01:16 57.19699 -135.63279 3691 ft 155 kts 141°
2026-04-17 01:16 57.18918 -135.61933 3475 ft 153 kts 140°
2026-04-17 01:17 57.18158 -135.60564 3264 ft 152 kts 139°
2026-04-17 01:17 57.17414 -135.59182 3042 ft 152 kts 137°
2026-04-17 01:17 57.16676 -135.57796 2834 ft 151 kts 138°
2026-04-17 01:17 57.15931 -135.56435 2645 ft 149 kts 139°
2026-04-17 01:18 57.15200 -135.55121 2558 ft 145 kts 138°
2026-04-17 01:18 57.14495 -135.53823 2525 ft 141 kts 139°
2026-04-17 01:18 57.13782 -135.52623 2501 ft 138 kts 140°
2026-04-17 01:18 57.13119 -135.51368 2471 ft 137 kts 134°
2026-04-17 01:19 57.12486 -135.50029 2408 ft 138 kts 136°
2026-04-17 01:19 57.11833 -135.48821 2370 ft 131 kts 146°
2026-04-17 01:19 57.11129 -135.47623 1838 ft 144 kts 136°
2026-04-17 01:19 57.10369 -135.46395 1491 ft 148 kts 142°
2026-04-17 01:20 57.09558 -135.45212 1183 ft 149 kts 139°
2026-04-17 01:20 57.08861 -135.43835 1000 ft 145 kts 131°
2026-04-17 01:20 57.08201 -135.42411 876 ft 148 kts 134°
2026-04-17 01:20 57.07462 -135.41066 762 ft 150 kts 140°
2026-04-17 01:21 57.06718 -135.39763 562 ft 140 kts 137°
2026-04-17 01:21 57.06070 -135.38572 327 ft 127 kts 140°
2026-04-17 01:21 57.05446 -135.37474 119 ft 121 kts 142°
2026-04-17 01:21 57.04904 -135.36502 38 ft 94 kts 138°
2026-04-17 01:22 57.04505 -135.35790 29 ft 66 kts 136°
2026-04-17 01:22 57.04295 -135.35420 29 ft 30 kts 137°
2026-04-17 01:22 57.04253 -135.35294 29 ft 17 kts 309°
2026-04-17 01:22 57.04365 -135.35513 29 ft 29 kts 311°
2026-04-17 01:23 57.04532 -135.35855 29 ft 42 kts 307°
2026-04-17 01:23 57.04736 -135.36217 32 ft 44 kts 323°
2026-04-17 01:23 57.04935 -135.36303 31 ft 27 kts
2026-04-17 01:23 57.04983 -135.36293 31 ft 5 kts 21°
2026-04-17 01:24 57.04992 -135.36303 31 ft 0 kts 311°